N54YT LFPB-EGLC

Flight info

Callsign N54YT
Flight time 0h 43m
Altitude 18000
Route OPALE J20 ABB T22 RATUK L613 SOVAT
Aircraft C700/M-SBDGHM1RWXY/LB2

Departure

Time 2026-04-25 16:50
Airport Paris-Le Bourget International Airport (LFPB)

Arrival

Time 2026-04-25 17:33
Airport London City Airport (EGLC)
Time Latitude Longitude Altitude Speed Heading
2026-04-25 16:33 48.95701 2.44256 149 ft 0 kts 108°
2026-04-25 16:45 48.95698 2.44258 149 ft 1 kts 159°
2026-04-25 16:45 48.95694 2.44249 149 ft 1 kts 264°
2026-04-25 16:45 48.95702 2.44226 149 ft 0 kts 298°
2026-04-25 16:46 48.95704 2.44225 149 ft 1 kts 335°
2026-04-25 16:46 48.95739 2.44191 149 ft 9 kts 312°
2026-04-25 16:46 48.95751 2.44116 150 ft 8 kts 251°
2026-04-25 16:46 48.95737 2.44088 150 ft 11 kts 220°
2026-04-25 16:47 48.95737 2.43859 149 ft 18 kts 294°
2026-04-25 16:47 48.95791 2.43677 151 ft 20 kts 294°
2026-04-25 16:47 48.95849 2.43487 157 ft 19 kts 294°
2026-04-25 16:47 48.95911 2.43282 154 ft 23 kts 297°
2026-04-25 16:48 48.95998 2.43048 149 ft 27 kts 311°
2026-04-25 16:48 48.96125 2.42809 149 ft 30 kts 309°
2026-04-25 16:48 48.96212 2.42646 155 ft 15 kts 309°
2026-04-25 16:48 48.96276 2.42524 156 ft 12 kts 317°
2026-04-25 16:49 48.96371 2.42491 156 ft 15 kts 21°
2026-04-25 16:49 48.96399 2.42571 157 ft 0 kts 83°
2026-04-25 16:49 48.96399 2.42580 157 ft 8 kts 84°
2026-04-25 16:49 48.96432 2.43159 164 ft 107 kts 85°
2026-04-25 16:50 48.96520 2.44648 661 ft 161 kts 82°
2026-04-25 16:50 48.96586 2.46491 1679 ft 191 kts 84°
2026-04-25 16:50 48.96640 2.48631 2782 ft 209 kts 84°
2026-04-25 16:50 48.96703 2.50840 3005 ft 207 kts 83°
2026-04-25 16:51 48.96834 2.52958 3021 ft 197 kts 84°
2026-04-25 16:51 48.96844 2.55043 2994 ft 213 kts 95°
2026-04-25 16:51 48.96577 2.57417 3974 ft 232 kts 98°
2026-04-25 16:51 48.96491 2.58243 4525 ft 236 kts 97°
2026-04-25 16:52 48.96201 2.62535 7247 ft 253 kts 93°
2026-04-25 16:52 48.96032 2.65208 8782 ft 251 kts 94°
2026-04-25 16:52 48.95979 2.67878 10300 ft 255 kts 77°
2026-04-25 16:52 48.96837 2.70263 11535 ft 262 kts 40°
2026-04-25 16:53 49.00209 2.70855 14087 ft 263 kts 329°
2026-04-25 16:53 49.01673 2.69197 15288 ft 263 kts 318°
2026-04-25 16:53 49.03124 2.67447 16515 ft 270 kts 322°
2026-04-25 16:54 49.04738 2.65916 17798 ft 275 kts 328°
2026-04-25 16:54 49.06420 2.64528 18965 ft 274 kts 329°
2026-04-25 16:54 49.08073 2.63101 19143 ft 271 kts 327°
2026-04-25 16:54 49.09737 2.61579 19151 ft 294 kts 326°
2026-04-25 16:55 49.11598 2.59882 19170 ft 328 kts 327°
2026-04-25 16:55 49.13592 2.58109 19163 ft 340 kts 327°
2026-04-25 16:55 49.15644 2.56293 19163 ft 342 kts 327°
2026-04-25 16:55 49.17696 2.54453 19160 ft 342 kts 327°
2026-04-25 16:56 49.19053 2.53230 19159 ft 342 kts 327°
2026-04-25 16:56 49.21744 2.50809 19155 ft 341 kts 327°
2026-04-25 16:56 49.23146 2.49552 19146 ft 341 kts 327°
2026-04-25 16:56 49.25207 2.47699 19149 ft 354 kts 327°
2026-04-25 16:57 49.27421 2.45692 19156 ft 381 kts 327°
2026-04-25 16:57 49.28970 2.44293 19154 ft 383 kts 327°
2026-04-25 16:57 49.32012 2.41561 19156 ft 384 kts 327°
2026-04-25 16:57 49.34209 2.39577 19163 ft 394 kts 327°
2026-04-25 16:58 49.36587 2.37418 19164 ft 398 kts 327°
2026-04-25 16:58 49.38965 2.35265 19161 ft 396 kts 327°
2026-04-25 16:58 49.41334 2.33126 19334 ft 391 kts 327°
2026-04-25 16:58 49.43686 2.30994 20046 ft 399 kts 327°
2026-04-25 16:59 49.46107 2.28787 20787 ft 398 kts 327°
2026-04-25 16:59 49.48485 2.26627 21544 ft 397 kts 327°
2026-04-25 16:59 49.50866 2.24462 22328 ft 399 kts 327°
2026-04-25 16:59 49.53248 2.22290 23091 ft 400 kts 326°
2026-04-25 17:00 49.55622 2.20116 23149 ft 402 kts 327°
2026-04-25 17:00 49.58029 2.17928 23146 ft 393 kts 326°
2026-04-25 17:00 49.60380 2.15777 23153 ft 410 kts 326°
2026-04-25 17:00 49.62947 2.13403 23172 ft 437 kts 326°
2026-04-25 17:01 49.65581 2.10986 23165 ft 439 kts 327°
2026-04-25 17:01 49.68148 2.08659 23158 ft 415 kts 327°
2026-04-25 17:01 49.70556 2.06461 23151 ft 388 kts 326°
2026-04-25 17:01 49.72773 2.04411 23153 ft 370 kts 326°
2026-04-25 17:02 49.75052 2.02287 23162 ft 399 kts 326°
2026-04-25 17:02 49.77524 1.99990 23176 ft 429 kts 326°
2026-04-25 17:02 49.80125 1.97600 23176 ft 437 kts 327°
2026-04-25 17:02 49.81897 1.95977 23174 ft 439 kts 327°
2026-04-25 17:03 49.85378 1.92756 23173 ft 440 kts 326°
2026-04-25 17:03 49.88061 1.90484 23155 ft 441 kts 333°
2026-04-25 17:03 49.90947 1.88878 23156 ft 442 kts 341°
2026-04-25 17:03 49.93976 1.87973 23155 ft 445 kts 351°
2026-04-25 17:04 49.97073 1.87573 23169 ft 448 kts 352°
2026-04-25 17:04 50.00182 1.87182 23170 ft 449 kts 352°
2026-04-25 17:04 50.03291 1.86773 23170 ft 448 kts 352°
2026-04-25 17:04 50.06391 1.86368 23170 ft 446 kts 352°
2026-04-25 17:05 50.09480 1.85973 23169 ft 445 kts 352°
2026-04-25 17:05 50.15595 1.84599 23173 ft 443 kts 342°
2026-04-25 17:05 50.18576 1.83338 23185 ft 445 kts 342°
2026-04-25 17:06 50.21574 1.82101 23184 ft 446 kts 342°
2026-04-25 17:06 50.24567 1.80873 23183 ft 444 kts 342°
2026-04-25 17:06 50.27550 1.79630 23192 ft 443 kts 342°
2026-04-25 17:06 50.30523 1.78383 23186 ft 442 kts 342°
2026-04-25 17:07 50.33496 1.77142 23178 ft 443 kts 342°
2026-04-25 17:07 50.36442 1.75914 23184 ft 446 kts 342°
2026-04-25 17:07 50.39473 1.74648 23189 ft 443 kts 342°
2026-04-25 17:07 50.42446 1.73405 23190 ft 443 kts 342°
2026-04-25 17:08 50.45395 1.72164 23190 ft 446 kts 342°
2026-04-25 17:08 50.48430 1.70888 23193 ft 444 kts 342°
2026-04-25 17:08 50.51403 1.69644 23189 ft 442 kts 342°
2026-04-25 17:08 50.54343 1.68405 23186 ft 445 kts 342°
2026-04-25 17:09 50.57356 1.67131 22815 ft 436 kts 342°
2026-04-25 17:09 50.60209 1.65938 22259 ft 411 kts 342°
2026-04-25 17:09 50.62889 1.64784 21744 ft 387 kts 340°
2026-04-25 17:09 50.65297 1.63204 21264 ft 365 kts 330°
2026-04-25 17:10 50.67396 1.61152 20802 ft 346 kts 321°
2026-04-25 17:10 50.69176 1.58808 20379 ft 331 kts 316°
2026-04-25 17:10 50.70871 1.56449 19955 ft 320 kts 316°
2026-04-25 17:10 50.72531 1.54163 19543 ft 315 kts 316°
2026-04-25 17:11 50.74179 1.51880 19132 ft 316 kts 316°
2026-04-25 17:11 50.75831 1.49580 18714 ft 317 kts 317°
2026-04-25 17:11 50.77487 1.47275 18273 ft 317 kts 317°
2026-04-25 17:11 50.79145 1.44962 17844 ft 322 kts 316°
2026-04-25 17:12 50.80855 1.42528 17404 ft 336 kts 316°
2026-04-25 17:12 50.82595 1.40048 16949 ft 336 kts 317°
2026-04-25 17:12 50.84326 1.37600 16511 ft 332 kts 317°
2026-04-25 17:12 50.86186 1.35467 16067 ft 329 kts 328°
2026-04-25 17:13 50.88258 1.33965 15638 ft 328 kts 339°
2026-04-25 17:13 50.89714 1.33330 15357 ft 327 kts 346°
2026-04-25 17:13 50.92744 1.32964 14783 ft 327 kts 360°
2026-04-25 17:13 50.95009 1.33129 14360 ft 325 kts
2026-04-25 17:14 50.97256 1.33017 13924 ft 322 kts 350°
2026-04-25 17:14 50.99456 1.32467 13480 ft 319 kts 349°
2026-04-25 17:14 51.01643 1.31957 13058 ft 317 kts 350°
2026-04-25 17:14 51.03818 1.31461 12641 ft 315 kts 350°
2026-04-25 17:15 51.05976 1.30954 12230 ft 313 kts 350°
2026-04-25 17:15 51.08111 1.30345 11801 ft 311 kts 341°
2026-04-25 17:15 51.09904 1.28508 11368 ft 310 kts 312°
2026-04-25 17:15 51.10989 1.25558 10964 ft 310 kts 293°
2026-04-25 17:16 51.11757 1.22361 10601 ft 309 kts 291°
2026-04-25 17:16 51.12600 1.19227 10225 ft 307 kts 296°
2026-04-25 17:16 51.13647 1.16277 9821 ft 306 kts 301°
2026-04-25 17:16 51.14744 1.13382 9429 ft 305 kts 300°
2026-04-25 17:17 51.15758 1.10462 9055 ft 295 kts 298°
2026-04-25 17:17 51.16702 1.07644 8647 ft 282 kts 298°
2026-04-25 17:17 51.17627 1.04949 8269 ft 272 kts 300°
2026-04-25 17:17 51.18531 1.02348 7890 ft 265 kts 300°
2026-04-25 17:18 51.19411 0.99805 7520 ft 259 kts 300°
2026-04-25 17:18 51.20260 0.97328 7255 ft 251 kts 300°
2026-04-25 17:18 51.21113 0.94853 7009 ft 262 kts 300°
2026-04-25 17:18 51.22009 0.92245 6783 ft 273 kts 300°
2026-04-25 17:19 51.22920 0.89588 6553 ft 272 kts 300°
2026-04-25 17:19 51.23822 0.86948 6297 ft 270 kts 300°
2026-04-25 17:19 51.24719 0.84332 6040 ft 267 kts 300°
2026-04-25 17:19 51.25604 0.81747 5835 ft 265 kts 300°
2026-04-25 17:20 51.26187 0.80039 5713 ft 265 kts 300°
2026-04-25 17:20 51.27364 0.76587 5447 ft 265 kts 300°
2026-04-25 17:20 51.28245 0.74007 5247 ft 263 kts 300°
2026-04-25 17:20 51.29117 0.71445 5060 ft 261 kts 300°
2026-04-25 17:21 51.29973 0.68927 5057 ft 257 kts 300°
2026-04-25 17:21 51.30835 0.66395 5058 ft 260 kts 300°
2026-04-25 17:21 51.31701 0.63846 5061 ft 261 kts 300°
2026-04-25 17:21 51.32569 0.61285 5063 ft 262 kts 300°
2026-04-25 17:22 51.33438 0.58720 5026 ft 262 kts 300°
2026-04-25 17:22 51.34013 0.57020 5016 ft 262 kts 299°
2026-04-25 17:22 51.35170 0.53602 5020 ft 260 kts 299°
2026-04-25 17:22 51.36031 0.51055 5016 ft 260 kts 299°
2026-04-25 17:23 51.36894 0.48497 5018 ft 262 kts 299°
2026-04-25 17:23 51.37762 0.45926 5011 ft 264 kts 298°
2026-04-25 17:23 51.38639 0.43319 5012 ft 267 kts 298°
2026-04-25 17:23 51.39517 0.40708 5013 ft 266 kts 298°
2026-04-25 17:24 51.40392 0.38103 5000 ft 265 kts 298°
2026-04-25 17:24 51.41269 0.35491 4868 ft 268 kts 298°
2026-04-25 17:24 51.42149 0.32869 4674 ft 266 kts 298°
2026-04-25 17:24 51.42886 0.30175 4497 ft 264 kts 285°
2026-04-25 17:25 51.43137 0.27285 4324 ft 262 kts 272°
2026-04-25 17:25 51.43217 0.24408 4149 ft 263 kts 273°
2026-04-25 17:25 51.43322 0.21480 3973 ft 262 kts 273°
2026-04-25 17:25 51.43421 0.18639 3799 ft 249 kts 273°
2026-04-25 17:26 51.43505 0.16066 3560 ft 240 kts 273°
2026-04-25 17:26 51.43589 0.13420 3050 ft 231 kts 273°
2026-04-25 17:26 51.43668 0.11019 2958 ft 203 kts 273°
2026-04-25 17:26 51.43740 0.08794 2757 ft 198 kts 273°
2026-04-25 17:27 51.43812 0.06617 2567 ft 193 kts 273°
2026-04-25 17:27 51.43879 0.04489 2381 ft 190 kts 273°
2026-04-25 17:27 51.43946 0.02366 2204 ft 191 kts 273°
2026-04-25 17:27 51.43969 0.01649 2143 ft 191 kts 273°
2026-04-25 17:28 51.44079 -0.01860 2042 ft 187 kts 273°
2026-04-25 17:28 51.44143 -0.03948 2040 ft 186 kts 273°
2026-04-25 17:28 51.44205 -0.05991 2039 ft 188 kts 273°
2026-04-25 17:28 51.44435 -0.08058 2038 ft 190 kts 293°
2026-04-25 17:29 51.45154 -0.09810 2042 ft 190 kts 314°
2026-04-25 17:29 51.46210 -0.10982 2032 ft 177 kts 337°
2026-04-25 17:29 51.47317 -0.11470 2031 ft 156 kts 348°
2026-04-25 17:29 51.48230 -0.11807 2073 ft 132 kts 347°
2026-04-25 17:30 51.48840 -0.11813 2037 ft 132 kts 13°
2026-04-25 17:30 51.49834 -0.10712 2048 ft 134 kts 49°
2026-04-25 17:30 51.50435 -0.09569 2061 ft 135 kts 47°
2026-04-25 17:30 51.50910 -0.08287 2010 ft 136 kts 73°
2026-04-25 17:31 51.50890 -0.06784 2056 ft 137 kts 92°
2026-04-25 17:31 51.50859 -0.05258 2049 ft 134 kts 91°
2026-04-25 17:31 51.50818 -0.03763 1892 ft 140 kts 91°
2026-04-25 17:31 51.50765 -0.02238 1515 ft 131 kts 91°
2026-04-25 17:32 51.50724 -0.00826 1188 ft 124 kts 91°
2026-04-25 17:32 51.50675 0.00521 833 ft 116 kts 92°
2026-04-25 17:32 51.50640 0.01787 562 ft 113 kts 92°
2026-04-25 17:32 51.50601 0.03057 302 ft 119 kts 92°
2026-04-25 17:33 51.50561 0.04360 57 ft 115 kts 92°
2026-04-25 17:33 51.50525 0.05528 17 ft 82 kts 92°
2026-04-25 17:33 51.50504 0.06141 18 ft 44 kts 93°
2026-04-25 17:33 51.50468 0.06334 22 ft 13 kts 168°
2026-04-25 17:34 51.50430 0.06233 21 ft 15 kts 269°
2026-04-25 17:34 51.50435 0.06011 16 ft 24 kts 272°
2026-04-25 17:34 51.50442 0.05776 18 ft 21 kts 273°
2026-04-25 17:34 51.50452 0.05490 17 ft 31 kts 273°
2026-04-25 17:35 51.50454 0.05252 23 ft 15 kts 264°
2026-04-25 17:35 51.50454 0.05033 21 ft 24 kts 275°
2026-04-25 17:35 51.50470 0.04740 24 ft 28 kts 272°
2026-04-25 17:35 51.50478 0.04466 19 ft 16 kts 274°
2026-04-25 17:36 51.50481 0.04361 19 ft 1 kts 201°
2026-04-25 17:36 51.50473 0.04316 20 ft 7 kts 247°
2026-04-25 17:36 51.50460 0.04311 19 ft 3 kts 187°
2026-04-25 17:36 51.50458 0.04311 19 ft 0 kts 184°